Location: Newark
(30.0333°N, 31.2167°E)
Time: 15:02:27
(UTC+00:00)

Explorer 7 - All Passes

Search period start: 27 January 2020 00:00
Search period end: 06 February 2020 00:00
Orbit: 485 x 679 km, 50.3° (Epoch: 27 January)

Date Brightness Start Highest point End Pass type
(mag) Time Alt. Az. Time Alt. Az. Time Alt. Az.
27 Jan - 02:10:55 10° NNW 02:14:32 35° NE 02:18:20 10° ESE visible
27 Jan - 03:51:40 10° WNW 03:54:54 23° SW 03:58:15 10° S visible
27 Jan - 17:47:52 10° SSW 17:51:28 33° SE 17:54:56 10° ENE visible
27 Jan - 19:28:50 10° W 19:31:56 23° NW 19:35:00 10° NNE night (unlit)
28 Jan - 02:15:37 10° NW 02:19:30 63° NE 02:23:36 10° SE visible
28 Jan - 03:58:03 10° WSW 03:59:40 12° SW 04:01:20 10° SSW visible
28 Jan - 17:52:21 10° SW 17:56:19 67° SE 18:00:06 10° NE visible
28 Jan - 19:34:52 10° WNW 19:37:04 15° NNW 19:39:13 10° N night (unlit)
29 Jan - 00:41:20 10° N 00:43:40 15° NNE 00:46:02 10° ENE night (unlit)
29 Jan - 02:20:31 10° NW 02:24:24 67° SW 02:28:31 10° SE visible
29 Jan - 16:19:41 10° SSE 16:21:05 11° SE 16:22:27 10° ESE visible
29 Jan - 17:57:16 10° SW 18:01:13 62° NW 18:05:00 10° NE visible
30 Jan - 00:45:36 10° NNW 00:48:47 24° NE 00:52:03 10° E night (unlit)
30 Jan - 02:25:42 10° WNW 02:29:16 34° SW 02:33:00 10° SSE visible
30 Jan - 16:22:40 10° S 16:25:51 22° SE 16:28:56 10° ENE visible
30 Jan - 18:02:34 10° WSW 18:06:12 33° NW 18:09:41 10° NNE visible
31 Jan - 00:50:10 10° NNW 00:53:48 40° NE 00:57:35 10° ESE night (unlit)
31 Jan - 02:31:20 10° W 02:34:04 18° SW 02:36:53 10° S visible
31 Jan - 16:26:47 10° SSW 16:30:41 42° SE 16:34:23 10° ENE visible
31 Jan - 18:08:15 10° W 18:11:15 20° NW 18:14:09 10° NNE visible
31 Jan - 23:16:42 10° NNE 23:17:48 11° NNE 23:18:54 10° NE night (unlit)
01 Feb - 00:54:55 10° NW 00:58:44 78° NE 01:02:45 10° SE night (unlit)
01 Feb - 16:31:26 10° SW 16:35:33 84° SE 16:39:27 10° NE visible
01 Feb - 18:14:29 10° WNW 18:16:24 13° NNW 18:18:15 10° N visible
01 Feb - 23:20:26 10° N 23:22:59 17° NNE 23:25:34 10° ENE night (unlit)
02 Feb - 00:59:53 10° NW 01:03:38 53° SW 01:07:32 10° SSE night (unlit)
02 Feb - 14:57:49 10° SSE 15:00:15 15° SE 15:02:36 10° E daylight
02 Feb - 16:36:28 10° WSW 16:40:28 51° NW 16:44:17 10° NE visible
02 Feb - 23:24:47 10° NNW 23:28:04 27° NE 23:31:25 10° E night (unlit)
03 Feb - 01:05:12 10° WNW 01:08:28 27° SW 01:11:51 10° S night (unlit)
03 Feb - 15:01:24 10° S 15:05:02 28° SE 15:08:30 10° ENE daylight
03 Feb - 16:41:52 10° W 16:45:28 29° NW 16:48:54 10° NNE visible
03 Feb - 23:29:24 10° NW 23:33:04 49° NE 23:36:51 10° ESE night (unlit)
04 Feb - 01:11:11 10° W 01:13:15 14° SW 01:15:22 10° SSW night (unlit)
04 Feb - 15:05:44 10° SSW 15:09:52 53° SE 15:13:47 10° NE daylight
04 Feb - 16:47:41 10° W 16:50:32 18° NW 16:53:18 10° N visible
04 Feb - 21:55:31 10° N 21:57:08 12° NNE 21:58:46 10° NE night (unlit)
04 Feb - 23:34:13 10° NW 23:37:59 85° SW 23:41:54 10° SE night (unlit)
05 Feb - 15:10:30 10° SW 15:14:45 80° NW 15:18:46 10° NE daylight
05 Feb - 16:54:08 10° NW 16:55:42 12° NNW 16:57:16 10° N visible
05 Feb - 21:59:31 10° NNW 22:02:17 19° NE 22:05:05 10° E night (unlit)
05 Feb - 23:39:17 10° WNW 23:42:51 41° SW 23:46:32 10° SSE night (unlit)
